Temp_Advection
nan nan nan nan nan nan nan nan nan nan nan nan nan nan nan nan nan nan nan nan nan nan nan nan nan nan nan nan nan nan nan nan nan nan nan nan nan nan nan nan nan nan nan nan nan nan nan nan nan
nan 0 0 -0 0 0 0 -0 -0 -0 -1 -1 -0 -0 -0 0 -0 -0 -0 -0 -1 -1 -2 -1 0 0 -0 -0 0 0 0 0 0 0 0 0 0 0 0 0 -0 0 0 0 -0 -0 -0 0 nan
nan 0 -0 -0 0 0 0 0 -0 -0 -0 -1 -1 -0 -0 -0 -0 -0 -1 -1 -0 0 -1 -1 -0 -0 -0 -0 -0 0 0 0 0 0 0 0 0 0 0 -0 -0 0 0 0 0 0 -0 0 nan
nan -0 -0 -0 0 0 0 -0 -0 -0 -0 -1 -1 -1 -0 -0 0 0 0 -1 -0 -0 0 -1 -1 -0 -0 -0 0 0 0 0 0 0 0 0 0 0 0 -0 0 -0 -0 -0 0 0 0 -0 nan
nan -0 -0 0 0 0 -0 -0 0 -0 -0 -0 -0 -0 -1 -0 0 -0 -0 -1 -2 -1 -0 -0 -1 -0 -0 0 -0 0 0 0 0 0 0 0 -0 0 -0 0 0 -0 -0 -0 -0 -0 0 -0 nan
nan -0 0 0 0 -0 -0 -0 -0 -0 -0 -0 -0 -0 -1 -0 -0 -0 -0 -1 -2 -2 -1 -0 -1 -1 -0 0 0 0 0 0 0 0 0 0 0 -0 -0 1 0 0 0 0 -0 -0 -0 -0 nan
nan -0 0 0 -0 -0 0 -0 -0 -0 -0 -0 -0 -0 -0 -0 -0 -1 -1 -1 -1 -2 -2 -1 -0 -1 -0 -0 0 1 0 0 0 0 0 0 0 0 0 1 0 0 0 0 0 -0 -0 -0 nan
nan -0 -0 0 0 -0 0 -0 -0 -0 -0 -0 -0 -0 -0 -0 -1 -1 -1 -0 -1 -1 -2 -2 -1 -0 -0 -1 -0 0 -0 0 0 0 0 0 0 0 1 1 0 0 0 0 0 0 -0 0 nan
nan -0 -0 -0 0 -0 0 -0 -0 -0 -0 -0 -0 -0 -1 -1 -0 -2 -2 -1 -1 -2 -2 -2 -1 -2 -0 -1 -1 -1 1 0 0 0 0 1 0 1 1 1 0 0 0 -0 -0 0 -0 0 nan
nan 0 0 -0 -0 0 -0 -0 -0 -0 -0 -0 -2 -1 0 -0 -0 -1 -1 -1 -1 -2 -2 -1 -1 -2 -2 -0 -1 -1 1 1 0 0 0 0 0 1 1 0 0 0 0 0 0 1 0 0 nan
nan -0 0 -0 -0 0 0 -0 -0 0 -0 0 0 -1 -1 -0 -0 -0 -0 -0 -1 -1 -1 -1 -1 -1 -2 -1 -0 -1 -0 0 1 1 0 0 1 1 0 0 0 1 0 0 0 -0 0 0 nan
nan 0 -0 -0 0 0 0 -0 -0 -0 -1 0 0 -0 -0 -0 -1 -0 -0 -0 0 -0 -1 -1 -1 -1 -2 -2 0 -0 -1 -0 1 1 0 1 1 1 -0 0 1 0 -0 -0 -0 -0 1 0 nan
nan 0 -0 0 0 0 0 0 -0 -1 -0 -0 0 -0 -0 -0 -1 -1 -0 -1 -0 0 -0 -1 -1 -1 -1 -3 -3 1 1 -0 -1 0 1 2 1 0 -0 1 1 -0 0 -0 0 0 0 0 nan
nan -0 -0 -0 0 0 0 -0 -0 -0 -0 -0 -0 -0 -0 -0 -1 -1 -1 -1 -1 -0 -0 -0 -1 -1 -1 -2 -4 -1 -0 -0 -1 -1 1 0 -1 -0 0 1 0 0 0 -0 0 1 1 0 nan
nan -0 -0 -0 -0 -0 0 0 -0 -0 -0 -1 -0 -1 -0 0 -0 -1 -0 -1 -2 -1 -0 -0 -0 -1 -1 0 -2 -3 -2 -0 -0 -1 -1 -0 1 0 1 0 0 0 -0 1 1 1 1 1 nan
nan 0 -0 -0 -0 -0 -0 -0 -0 -0 0 -0 -0 -1 -1 -0 -0 -1 -1 -0 -0 -1 -1 -0 0 -0 -1 -1 -1 -2 -2 -1 -1 -1 -1 -1 -0 -1 -0 -0 0 0 0 0 1 1 1 1 nan
nan -0 0 -0 -0 -0 0 -0 -0 -0 1 -0 -0 -1 -1 -1 -1 -1 -1 -1 0 -0 -1 -1 -0 -0 -0 -1 -1 -0 -1 -1 -2 -2 -2 -1 -1 0 -0 0 0 -0 1 0 1 1 1 1 nan
nan -0 -0 -0 -0 0 0 -0 0 1 0 0 -0 -0 -0 -1 -1 -1 -1 -1 -1 -0 -0 -1 -1 -1 -0 -0 -1 -1 0 1 -1 -3 -2 -3 -1 -1 0 1 -1 0 1 1 1 1 1 1 nan
nan 0 -0 -0 -0 0 -0 -1 0 1 0 0 -0 -0 -0 -0 -0 -1 -1 -1 -1 -1 -1 -0 -0 -0 -1 -0 -1 -1 -1 0 0 -1 -2 -3 -1 -1 -1 -1 -1 0 0 1 0 0 0 1 nan
nan 0 -0 -0 -0 -0 0 1 0 0 0 0 0 -0 -0 -1 -1 -0 -1 -1 -1 -1 -1 -1 -1 -1 -0 -1 -0 -0 -1 -2 0 -0 -2 -2 -2 -1 -1 -0 -1 0 0 1 -0 0 0 -1 nan
nan -0 -0 -0 -0 -0 -0 0 0 0 0 -0 0 0 0 -0 -1 -1 -1 -2 -2 -2 -2 -2 -1 -1 -1 -1 -1 -0 -0 -2 -1 -0 -1 -2 -2 -2 -1 -0 -0 0 0 0 0 0 -1 -1 nan
nan -0 0 0 -0 -0 -0 0 0 0 0 0 0 0 0 0 -0 -1 -1 -1 -2 -1 -1 -2 -2 -1 -1 -1 -1 -1 -1 -2 -1 -1 -1 -3 -2 -2 -0 -0 1 0 1 1 0 0 1 0 nan
nan -0 -0 -0 0 -0 0 0 0 -0 -0 0 0 0 0 0 0 -0 0 -0 -1 -1 -1 -1 -2 -2 -1 -0 -1 -1 -1 -1 -2 -1 -1 -2 -2 -2 -0 -0 1 0 1 0 0 1 0 -1 nan
nan -0 -0 -0 0 0 -0 0 -0 0 0 0 0 -0 -0 0 1 0 0 0 -0 -0 -0 -0 -1 -2 -1 -0 -0 -1 -2 -1 -2 -1 -1 -1 -3 -2 -0 -1 -0 1 0 0 2 1 -1 0 nan
nan 0 -0 1 0 -0 -0 -0 0 1 0 -0 -0 -0 0 0 0 0 -0 -0 -1 -1 -0 -0 -0 -1 -1 -1 -0 -0 -1 -1 -2 -2 -1 -1 -1 -2 -1 -1 -1 -0 0 1 -0 1 2 0 nan
nan 0 0 -0 0 -0 -0 -0 1 1 -0 -0 0 -0 -0 0 0 -0 0 -0 -0 -1 -1 -1 -1 -1 -1 -2 -1 -1 -0 -1 -1 -2 -2 -1 -1 -1 -1 -1 -2 0 0 -1 0 3 1 1 nan
nan -0 0 -0 0 -0 0 -0 0 0 -0 -0 -0 -1 -1 0 0 0 -0 1 0 -0 -1 -1 -1 -1 -1 -1 -2 -1 -1 -0 -1 -2 -2 -1 -1 -1 -1 -2 -1 -0 -0 0 2 -0 1 2 nan
nan -0 -0 -0 -0 0 0 -1 -0 1 -0 0 -0 -2 -1 0 1 0 -0 0 1 0 -0 -0 -0 -1 -0 -1 -1 -1 -2 -1 -0 -2 -3 -1 -1 -1 -1 -2 -1 -1 0 1 -1 0 2 -1 nan
nan 0 -0 0 0 0 -0 0 1 -0 0 -0 -1 -2 0 0 0 1 -0 -0 0 0 0 -0 -0 -1 -1 -1 -1 -1 -2 -2 -1 -1 -2 -2 -2 -1 -2 -1 -1 -1 -0 -0 -0 1 0 -0 nan
nan nan nan nan nan nan nan nan nan nan nan nan nan nan nan nan nan nan nan nan nan nan nan nan nan nan nan nan nan nan nan nan nan nan nan nan nan nan nan nan nan nan nan nan nan nan nan nan nan
Wind_Speed
10 12 12 8 4 4 1 3 3 4 4 7 8 4 5 4 3 1 13 25 22 20 13 9 11 20 25 30 29 28 27 25 24 23 23 22 21 19 17 16 17 18 18 18 17 19 19 20 20
14 13 9 5 4 3 2 3 2 5 10 15 9 9 5 4 4 2 9 25 27 24 15 10 13 19 25 28 31 30 29 27 26 25 24 22 21 20 19 18 18 19 18 18 18 17 17 18 18
16 12 4 3 3 3 3 2 4 9 11 15 8 6 7 3 4 8 22 24 26 22 17 11 13 19 23 29 32 32 31 30 29 27 25 24 22 22 21 19 19 20 19 18 16 18 17 18 17
11 4 6 3 4 3 2 4 9 5 6 12 13 10 6 3 3 12 23 28 24 25 18 15 10 18 27 28 30 34 33 32 31 29 28 26 24 24 23 22 20 19 18 18 18 18 17 18 16
6 5 4 4 2 2 2 4 11 9 5 9 14 9 15 12 10 14 23 32 31 28 26 24 17 14 26 24 31 34 35 34 33 32 30 27 26 26 25 24 22 18 15 17 19 18 17 16 15
5 3 3 2 3 2 2 9 3 10 9 15 8 15 10 9 13 18 27 35 36 34 32 29 28 14 19 18 27 33 38 36 35 33 31 29 28 28 28 25 23 20 15 14 18 18 18 16 16
5 3 3 3 2 4 2 3 5 5 9 6 15 10 14 15 20 31 36 38 38 37 35 33 30 25 10 11 22 28 38 40 38 35 32 30 30 30 29 28 25 22 17 15 17 17 16 15 16
5 5 4 1 2 3 2 4 5 7 7 14 16 6 8 20 38 40 38 39 39 39 37 35 33 32 21 9 12 15 36 40 39 37 34 32 32 32 31 30 27 23 18 16 17 17 16 15 16
3 4 3 6 6 3 1 6 10 12 17 17 17 23 34 37 33 37 33 34 33 34 34 33 34 34 28 24 12 9 30 38 39 36 34 33 34 34 33 33 29 25 20 17 18 18 17 16 17
5 3 6 5 4 3 5 6 16 6 14 20 29 32 31 34 34 30 28 31 30 30 30 29 30 33 34 27 20 14 11 27 37 37 36 36 37 37 37 34 30 27 22 19 18 18 19 18 18
3 3 4 3 6 8 3 9 12 10 5 18 22 31 25 25 25 26 26 26 27 28 26 26 28 32 36 36 22 21 9 10 34 38 37 39 40 40 39 37 34 31 26 23 21 21 19 18 18
3 4 2 1 5 7 7 11 7 12 15 24 21 20 27 27 24 21 22 21 23 23 24 25 25 29 31 37 33 29 15 9 10 25 41 44 43 45 43 42 40 37 32 27 25 21 20 19 18
2 1 3 4 10 18 15 14 10 18 18 14 18 25 26 24 21 22 19 18 19 22 20 22 24 26 30 35 40 31 25 20 10 4 25 47 46 48 47 45 44 41 35 29 26 23 23 22 20
2 2 11 8 10 9 6 8 4 9 9 21 23 24 25 24 19 18 19 18 17 21 20 20 21 19 25 28 35 39 35 25 21 11 12 8 50 50 50 50 48 45 37 32 27 26 26 25 23
1 3 5 2 2 4 6 6 7 9 12 22 28 29 24 17 15 16 18 18 20 21 24 23 20 20 21 25 26 33 38 32 33 23 15 5 36 54 54 53 52 47 40 35 30 29 28 28 26
3 3 4 1 6 3 5 7 7 11 18 23 25 17 17 17 17 15 18 20 18 20 23 22 22 20 22 24 27 32 40 37 38 31 28 21 6 43 58 57 55 50 44 38 34 33 33 31 30
5 2 2 6 3 2 3 14 8 14 23 13 19 16 14 14 13 14 14 19 19 19 20 22 20 24 20 20 22 18 23 31 31 38 34 25 15 21 63 61 59 53 49 43 39 37 36 36 32
3 3 4 6 3 5 15 23 16 10 9 6 9 10 12 15 16 17 15 17 19 19 19 21 21 24 23 23 24 25 28 29 32 38 34 35 24 13 56 64 63 58 53 47 42 40 40 37 36
3 4 7 6 6 4 10 23 18 9 3 2 3 9 14 17 18 19 18 18 19 21 20 21 22 21 24 23 25 23 25 29 27 28 31 33 28 26 14 70 67 62 56 52 47 45 44 43 38
4 3 5 8 2 8 9 28 9 2 4 3 3 8 13 19 20 22 22 21 21 22 22 21 23 23 22 23 22 23 26 27 33 31 32 31 30 22 22 56 68 65 57 54 51 50 49 45 44
3 4 3 5 9 6 11 9 3 4 3 5 4 7 10 16 22 25 26 27 25 24 25 23 21 22 23 24 24 23 26 27 27 29 30 33 32 26 27 36 72 66 62 59 56 54 54 54 51
2 4 3 8 8 4 9 6 5 3 7 8 7 6 10 17 21 24 27 28 27 27 26 25 23 21 22 24 24 24 26 27 25 26 31 32 32 31 23 23 66 65 64 63 60 56 55 56 56
4 3 3 2 1 3 1 0 7 3 6 7 9 5 10 17 20 24 26 27 26 26 28 27 24 22 22 23 23 25 26 24 26 25 27 30 29 31 15 20 50 72 68 66 63 60 59 58 56
3 4 5 3 2 2 2 3 5 4 5 2 5 7 9 17 20 20 22 24 24 24 26 27 26 23 22 23 22 22 24 25 25 26 23 25 25 31 26 25 39 53 68 65 67 63 61 61 58
6 5 4 5 3 4 4 2 11 6 7 5 7 9 9 14 19 20 22 25 26 25 25 27 27 26 23 23 24 24 22 24 26 26 23 22 20 30 26 26 38 43 53 66 71 68 63 63 60
2 5 4 5 3 4 2 7 6 5 9 14 12 13 13 13 15 17 20 22 25 25 24 25 26 27 25 24 25 26 24 24 27 27 25 22 26 24 39 21 45 51 51 58 55 69 67 61 58
2 1 1 4 1 1 3 7 11 3 6 13 21 19 20 14 13 14 17 20 22 24 24 25 26 25 25 25 25 25 25 24 25 29 25 23 27 26 32 25 45 52 54 52 60 56 58 61 60
4 5 4 2 3 6 5 6 10 5 8 12 14 26 21 15 12 12 14 18 21 22 23 23 23 25 25 24 24 25 26 26 25 29 26 25 28 32 33 41 37 50 48 51 45 47 45 61 57
4 3 3 2 3 4 4 6 7 8 10 12 16 23 17 15 11 13 14 15 19 20 21 23 23 25 25 25 25 25 24 25 26 29 30 28 29 33 32 42 35 54 53 53 51 51 49 53 50
4 7 7 4 6 4 2 10 2 7 5 15 19 21 15 15 12 14 15 16 17 20 20 22 22 24 24 25 25 27 26 25 26 28 29 28 31 35 36 33 36 47 59 57 50 52 51 54 52
Wind_Direction
141 127 128 126 87 75 134 244 314 1 359 3 338 322 263 276 316 286 323 358 353 340 341 303 223 239 228 219 213 207 201 197 191 189 186 183 178 175 169 162 156 156 155 155 156 147 146 143 139
138 130 120 95 96 136 208 300 261 20 341 340 349 335 20 281 332 331 353 355 2 348 331 316 249 227 232 227 217 212 205 200 196 194 191 188 184 180 176 172 168 167 167 167 178 170 162 154 147
140 145 97 82 89 144 161 146 352 359 16 8 354 354 330 313 356 6 349 345 353 349 337 306 271 225 226 229 222 216 211 204 201 199 197 195 190 187 183 183 179 178 181 180 177 184 181 166 157
139 118 69 83 136 216 192 19 346 10 356 13 350 291 313 305 335 342 334 329 335 346 334 329 288 236 225 223 225 219 215 208 205 204 199 197 195 192 188 189 188 189 192 198 184 185 186 175 172
115 84 73 86 156 188 80 35 52 61 14 348 346 301 306 289 278 308 315 324 322 329 338 332 312 244 234 213 226 223 217 212 208 206 203 199 197 195 194 192 191 190 189 192 184 184 183 181 180
69 83 80 168 231 274 28 7 79 46 353 330 337 316 282 268 276 298 315 319 321 318 323 326 324 288 237 237 208 223 221 215 210 207 207 202 200 198 198 194 192 185 189 191 184 181 179 184 184
101 73 106 123 258 307 107 76 69 20 335 307 319 297 275 268 290 310 312 314 313 315 313 316 321 306 278 265 211 207 223 218 214 211 209 207 203 200 199 197 195 189 190 192 187 184 181 184 185
90 89 104 166 184 259 140 7 330 351 297 295 305 262 298 286 306 311 309 311 316 312 314 313 313 311 299 302 232 217 199 218 216 214 211 209 204 202 199 199 200 195 194 199 189 189 186 183 181
71 72 130 174 170 241 245 355 312 306 287 289 274 274 287 300 307 312 315 314 321 317 317 317 314 311 301 310 286 296 192 200 219 215 212 209 204 203 201 200 201 201 198 201 196 188 188 184 179
58 81 191 172 195 242 301 284 299 282 284 281 292 298 304 308 315 317 325 324 330 330 321 319 316 317 304 307 302 291 191 197 207 216 212 207 205 203 202 202 204 205 201 201 196 193 185 184 176
70 139 174 216 229 285 267 294 308 294 283 291 295 306 321 320 327 324 324 325 327 326 320 319 315 317 308 299 306 291 256 219 194 214 215 209 205 203 204 202 204 205 202 200 191 192 188 182 179
115 148 183 234 255 290 294 293 283 266 274 314 312 322 323 322 326 329 324 327 322 325 322 320 314 317 319 305 298 298 275 287 139 176 212 211 206 203 204 203 203 205 203 202 199 194 187 183 182
73 182 261 275 285 290 292 263 265 271 301 320 317 318 321 321 321 316 309 310 309 318 323 320 319 320 315 317 296 295 286 298 275 207 188 213 207 206 206 205 207 205 204 204 204 194 189 186 183
197 278 289 305 298 269 274 283 346 279 309 321 315 320 318 316 321 311 307 305 305 310 322 327 325 326 316 319 310 295 286 290 290 270 167 184 214 209 206 207 211 211 206 206 204 199 193 188 186
330 311 311 248 247 279 338 264 232 281 295 309 306 314 307 308 316 317 314 317 315 309 317 320 323 323 321 321 322 305 293 287 293 277 281 359 201 213 211 210 211 212 208 207 203 199 194 191 186
54 42 3 265 312 266 90 267 263 299 300 299 310 316 303 305 317 322 311 312 318 311 308 319 320 325 320 320 320 310 301 296 289 285 275 271 285 211 211 213 214 211 213 207 203 201 195 192 190
12 301 197 306 227 308 185 283 249 284 292 304 314 327 326 324 325 332 324 314 318 324 315 313 316 310 320 315 305 311 305 302 296 285 285 276 303 207 211 214 215 212 212 209 204 200 200 192 191
289 320 280 236 262 234 279 268 279 264 275 300 318 340 346 346 345 344 341 325 318 320 319 316 315 308 314 303 305 312 303 293 292 288 284 284 265 3 209 217 217 210 210 209 205 202 197 196 192
169 195 242 256 260 257 272 287 292 281 194 263 326 349 346 346 345 344 341 334 325 319 314 309 308 309 308 304 303 306 295 291 284 289 283 284 270 250 328 213 217 210 210 210 207 200 199 193 194
188 273 266 289 222 321 299 293 314 161 194 209 324 344 342 343 348 350 348 340 332 328 324 316 312 308 304 300 304 304 299 291 290 285 285 284 275 274 283 209 215 210 210 212 207 202 195 197 195
215 201 249 263 323 304 327 279 270 196 202 217 286 333 341 346 347 350 349 347 341 333 327 325 318 311 305 305 297 294 285 286 292 286 281 278 270 271 234 224 214 212 213 213 210 205 201 197 193
310 178 257 308 360 305 48 286 274 243 241 228 261 315 343 345 346 347 346 346 344 338 332 325 321 314 305 300 294 288 291 290 286 286 283 280 277 266 220 252 214 214 214 215 212 210 205 204 196
220 23 16 29 219 11 145 74 271 355 281 222 219 271 340 344 341 341 342 342 342 337 332 329 325 315 304 300 298 288 288 286 282 284 282 278 271 263 247 254 205 215 209 213 215 212 206 208 207
54 48 56 53 93 343 220 148 264 212 210 192 206 245 325 336 335 333 336 336 337 336 332 329 328 323 310 300 297 291 286 283 281 276 274 270 271 253 257 250 223 203 207 213 214 217 211 209 210
66 49 324 340 1 240 154 236 255 249 225 211 214 255 300 327 326 327 335 337 337 337 334 330 329 327 319 307 299 295 289 283 281 276 272 262 244 252 256 253 238 224 214 217 210 217 214 212 211
131 146 160 255 254 297 8 238 249 220 243 232 240 264 284 306 312 320 331 336 335 334 333 330 328 326 323 315 304 298 295 285 280 274 269 255 243 234 246 260 235 226 221 219 232 216 213 213 214
207 128 168 90 158 305 233 284 275 216 241 230 243 251 259 282 298 307 326 332 334 333 332 330 328 325 324 319 310 300 293 289 281 273 266 258 247 232 246 255 233 229 222 222 211 220 221 214 214
143 142 76 30 280 261 266 277 245 248 234 228 240 243 249 266 283 295 317 328 329 332 330 329 327 324 322 319 312 305 298 291 286 279 269 255 248 237 232 243 253 229 219 220 219 225 232 219 223
155 194 38 130 174 222 289 241 217 220 204 209 226 230 237 261 285 294 305 320 322 326 329 329 328 326 323 320 315 309 304 295 289 280 272 258 250 241 221 238 250 229 229 224 222 223 223 224 223
175 187 160 174 218 234 277 269 239 223 236 215 224 218 233 265 280 284 292 307 316 320 327 329 330 329 328 324 320 315 308 300 290 280 274 266 251 240 220 225 250 224 224 219 219 218 219 217 219
Height
1526 1529 1531 1533 1545 1550 1557 1553 1550 1548 1548 1550 1548 1546 1545 1542 1542 1548 1547 1545 1541 1537 1535 1533 1535 1540 1542 1543 1543 1543 1546 1547 1549 1551 1553 1554 1556 1557 1559 1561 1562 1564 1565 1568 1569 1569 1570 1570 1571
1526 1530 1532 1533 1545 1550 1556 1553 1550 1552 1555 1551 1548 1547 1546 1543 1544 1545 1544 1542 1540 1536 1534 1534 1534 1535 1540 1542 1543 1542 1544 1547 1548 1550 1553 1554 1556 1557 1559 1561 1563 1564 1566 1568 1569 1570 1571 1572 1573
1528 1531 1533 1539 1549 1550 1551 1552 1553 1553 1551 1551 1551 1550 1547 1546 1545 1547 1544 1542 1541 1537 1535 1532 1531 1533 1537 1540 1541 1542 1543 1546 1547 1549 1551 1554 1556 1557 1559 1561 1563 1565 1566 1567 1569 1571 1572 1573 1574
1530 1533 1538 1543 1551 1553 1550 1554 1552 1553 1551 1553 1555 1553 1550 1547 1547 1545 1544 1542 1540 1538 1535 1530 1529 1530 1529 1536 1539 1541 1542 1544 1546 1548 1549 1552 1555 1557 1559 1560 1562 1564 1566 1567 1568 1570 1572 1573 1574
1530 1532 1543 1549 1552 1551 1553 1555 1554 1555 1554 1554 1556 1551 1551 1548 1545 1544 1543 1540 1537 1536 1535 1531 1527 1525 1525 1525 1536 1539 1540 1542 1544 1547 1548 1550 1553 1556 1558 1560 1562 1564 1566 1567 1568 1570 1572 1573 1574
1530 1535 1546 1547 1553 1553 1554 1554 1553 1557 1557 1555 1555 1554 1548 1545 1544 1542 1540 1537 1535 1534 1533 1530 1527 1524 1522 1521 1524 1534 1538 1540 1541 1544 1547 1549 1551 1554 1556 1559 1561 1563 1565 1567 1568 1570 1571 1573 1574
1532 1540 1552 1559 1557 1555 1554 1554 1556 1557 1557 1554 1555 1553 1546 1544 1541 1538 1537 1535 1532 1531 1531 1529 1525 1523 1519 1518 1523 1520 1534 1536 1539 1541 1544 1547 1550 1552 1555 1557 1560 1562 1564 1566 1567 1570 1572 1573 1574
1534 1541 1558 1562 1558 1553 1556 1555 1555 1555 1554 1553 1553 1547 1543 1539 1539 1537 1534 1532 1529 1527 1528 1526 1522 1520 1520 1517 1516 1515 1519 1532 1535 1539 1541 1545 1548 1551 1554 1556 1559 1561 1563 1565 1566 1569 1571 1572 1574
1536 1545 1556 1557 1560 1552 1554 1555 1553 1552 1549 1551 1549 1547 1544 1539 1537 1534 1530 1529 1529 1526 1523 1521 1519 1518 1516 1515 1511 1513 1512 1521 1533 1536 1539 1543 1546 1549 1552 1554 1557 1560 1562 1564 1566 1568 1570 1572 1573
1538 1549 1551 1551 1551 1551 1552 1554 1551 1551 1548 1544 1540 1538 1538 1536 1534 1531 1527 1524 1526 1522 1518 1519 1516 1515 1518 1513 1510 1508 1509 1518 1525 1532 1535 1539 1542 1545 1549 1553 1556 1559 1561 1563 1565 1567 1568 1571 1572
1544 1547 1549 1550 1550 1549 1548 1548 1545 1543 1540 1540 1538 1535 1534 1534 1532 1529 1525 1523 1521 1519 1516 1513 1511 1511 1509 1513 1511 1507 1514 1514 1516 1528 1532 1534 1537 1541 1545 1550 1554 1556 1559 1561 1563 1564 1567 1570 1572
1546 1547 1548 1549 1549 1546 1546 1547 1543 1541 1537 1537 1536 1534 1532 1530 1528 1526 1523 1521 1518 1515 1513 1510 1509 1509 1507 1507 1509 1512 1502 1512 1507 1510 1525 1529 1533 1535 1539 1544 1547 1550 1553 1557 1559 1562 1566 1568 1572
1545 1547 1547 1548 1547 1544 1542 1541 1541 1535 1534 1533 1533 1533 1530 1528 1526 1524 1520 1518 1517 1513 1510 1509 1505 1502 1501 1500 1498 1500 1500 1501 1503 1503 1510 1524 1528 1531 1535 1538 1540 1544 1549 1554 1557 1560 1563 1566 1570
1547 1547 1546 1544 1544 1542 1541 1538 1537 1530 1531 1529 1528 1528 1528 1525 1523 1520 1517 1513 1511 1512 1511 1508 1502 1501 1498 1503 1493 1497 1503 1494 1492 1501 1502 1506 1522 1525 1530 1532 1535 1538 1546 1550 1554 1557 1560 1564 1568
1548 1547 1544 1542 1542 1541 1539 1535 1531 1528 1527 1525 1524 1525 1522 1522 1520 1517 1514 1512 1507 1502 1501 1500 1498 1497 1492 1493 1495 1495 1496 1491 1499 1500 1498 1503 1512 1520 1523 1526 1529 1534 1541 1546 1550 1554 1558 1561 1565
1549 1549 1545 1541 1541 1539 1541 1531 1526 1525 1524 1521 1521 1519 1518 1518 1516 1515 1513 1510 1508 1504 1500 1494 1492 1490 1491 1486 1486 1483 1486 1489 1496 1496 1493 1502 1502 1510 1515 1519 1523 1529 1535 1542 1545 1549 1553 1558 1561
1553 1550 1554 1543 1539 1539 1539 1525 1522 1521 1520 1518 1517 1516 1515 1514 1513 1512 1510 1507 1505 1502 1500 1496 1493 1493 1488 1489 1495 1492 1487 1490 1494 1491 1488 1485 1491 1492 1503 1511 1516 1523 1528 1535 1540 1544 1549 1554 1559
1547 1554 1547 1546 1539 1537 1534 1520 1518 1517 1516 1515 1514 1514 1513 1511 1509 1508 1507 1504 1501 1500 1500 1497 1494 1495 1483 1489 1485 1475 1475 1484 1492 1483 1485 1484 1483 1496 1498 1502 1508 1515 1521 1527 1535 1539 1545 1552 1556
1548 1553 1550 1538 1535 1536 1529 1513 1511 1512 1512 1513 1512 1512 1511 1510 1508 1505 1504 1501 1497 1495 1493 1494 1496 1493 1486 1489 1482 1473 1481 1484 1486 1487 1492 1485 1485 1490 1488 1491 1497 1507 1512 1519 1527 1532 1538 1545 1553
1548 1549 1548 1536 1532 1533 1525 1507 1506 1508 1509 1510 1510 1510 1510 1508 1505 1502 1499 1498 1494 1490 1489 1486 1481 1482 1486 1485 1479 1474 1476 1477 1472 1477 1478 1481 1483 1479 1489 1481 1487 1497 1506 1512 1518 1523 1530 1540 1545
1545 1547 1546 1543 1535 1529 1525 1509 1506 1507 1508 1507 1508 1508 1508 1506 1502 1498 1496 1493 1491 1487 1485 1484 1484 1481 1477 1472 1473 1472 1480 1472 1469 1470 1470 1477 1482 1481 1477 1482 1479 1489 1497 1503 1509 1514 1520 1525 1536
1551 1539 1539 1540 1542 1541 1534 1530 1508 1504 1505 1504 1504 1504 1504 1504 1501 1497 1494 1490 1488 1485 1482 1479 1479 1477 1476 1474 1474 1474 1475 1467 1466 1463 1465 1466 1465 1470 1468 1470 1470 1474 1488 1497 1500 1507 1514 1518 1524
1539 1539 1542 1545 1547 1555 1540 1548 1497 1507 1499 1499 1500 1502 1501 1501 1498 1494 1490 1487 1485 1482 1478 1476 1475 1475 1474 1472 1467 1469 1465 1462 1462 1458 1455 1458 1463 1466 1464 1469 1468 1468 1473 1487 1492 1498 1504 1513 1517
1540 1546 1551 1557 1557 1558 1541 1543 1491 1501 1496 1495 1496 1497 1497 1496 1494 1491 1488 1483 1479 1478 1475 1472 1470 1469 1467 1467 1467 1464 1461 1458 1455 1461 1457 1459 1456 1456 1462 1462 1464 1465 1460 1473 1483 1491 1497 1503 1511
1546 1553 1553 1548 1557 1526 1538 1544 1493 1492 1492 1491 1491 1492 1491 1489 1489 1487 1483 1479 1474 1470 1468 1466 1463 1461 1459 1457 1457 1455 1455 1451 1453 1453 1455 1455 1454 1457 1455 1456 1461 1462 1464 1465 1470 1482 1491 1496 1503
1558 1552 1556 1549 1547 1533 1539 1524 1486 1487 1485 1486 1486 1486 1484 1484 1485 1483 1480 1477 1473 1468 1464 1460 1457 1454 1452 1450 1446 1443 1443 1447 1446 1446 1446 1444 1447 1445 1449 1450 1452 1456 1461 1465 1464 1474 1481 1491 1497
1551 1555 1553 1560 1576 1556 1535 1517 1488 1484 1483 1482 1481 1481 1478 1477 1478 1479 1477 1474 1471 1467 1462 1457 1452 1450 1447 1444 1441 1442 1442 1442 1442 1438 1432 1432 1435 1436 1444 1447 1451 1447 1454 1457 1462 1471 1475 1478 1487
1537 1545 1554 1565 1559 1542 1526 1529 1475 1479 1477 1477 1476 1472 1472 1473 1472 1473 1473 1470 1467 1465 1461 1456 1451 1445 1443 1442 1441 1438 1435 1432 1431 1429 1426 1426 1431 1433 1432 1440 1445 1445 1446 1453 1456 1458 1467 1474 1480
1541 1543 1558 1552 1550 1539 1529 1490 1470 1465 1466 1466 1465 1466 1468 1468 1467 1467 1466 1465 1463 1460 1458 1454 1449 1443 1437 1434 1431 1431 1426 1419 1417 1420 1422 1421 1422 1424 1425 1434 1437 1437 1439 1444 1447 1453 1461 1468 1475
1527 1529 1532 1526 1541 1552 1545 1476 1456 1458 1459 1459 1458 1459 1461 1462 1462 1462 1461 1459 1458 1455 1453 1450 1446 1441 1436 1430 1425 1420 1417 1417 1415 1414 1412 1411 1411 1414 1419 1424 1432 1432 1431 1433 1439 1445 1452 1461 1467